Weather reports worldwide

Advertisment
Reading University Whiteknights, United Kingdom (99183): temperature & dewpoint: 17.10.2019 20:00:00 - 23.10.2019 20:00:00 (BST)Reading University Whiteknights, United Kingdom (99183): temperature -20cm & temperature -100cm: 17.10.2019 20:00:00 - 23.10.2019 20:00:00 (BST)Reading University Whiteknights, United Kingdom (99183): sunshine duration: 17.10.2019 20:00:00 - 23.10.2019 20:00:00 (BST)Reading University Whiteknights, United Kingdom (99183): precipitation: 17.10.2019 20:00:00 - 23.10.2019 20:00:00 (BST)
Date & Time tt [°C] td [°C] tt -20cm [°C] tt -100cm [°C] sd [min] rr [mm]
23.10.2019 20:00:00 - - - - - -
23.10.2019 19:00:00 11,8 10,4 - - 0 0,0
23.10.2019 18:00:00 12,3 10,4 - - 0 0,2
23.10.2019 17:00:00 12,9 10,1 - - 0 0,0
23.10.2019 16:00:00 13,3 10,2 - - 0 0,0
23.10.2019 15:00:00 13,3 9,9 - - 0 0,0
23.10.2019 14:00:00 12,5 9,7 - - 0 0,0
23.10.2019 13:00:00 11,7 9,4 - - 18 0,0
23.10.2019 12:00:00 8,9 7,7 - - 0 0,0
23.10.2019 11:00:00 7,8 6,9 - - 0 0,0
23.10.2019 10:00:00 6,9 6,7 11,4 13,4 0 0,0
23.10.2019 09:00:00 5,4 5,2 - - 0 0,0
23.10.2019 08:00:00 4,4 4,2 - - 0 0,0
23.10.2019 07:00:00 3,6 3,2 - - 0 0,0
23.10.2019 06:00:00 4,2 3,9 - - 0 0,0
23.10.2019 05:00:00 4,4 4,2 - - 0 0,0
23.10.2019 04:00:00 3,9 3,5 - - 0 0,0
23.10.2019 03:00:00 3,9 3,5 - - 0 0,0
23.10.2019 02:00:00 4,1 3,7 - - 0 0,0
23.10.2019 01:00:00 4,3 3,7 - - - 0,0
23.10.2019 00:00:00 5,3 4,7 - - 0 0,0
22.10.2019 23:00:00 5,7 4,7 - - 0 0,0
22.10.2019 22:00:00 6,7 5,4 - - 0 0,0
22.10.2019 21:00:00 7,5 5,7 - - 0 0,0
22.10.2019 20:00:00 8,5 5,7 - - 0 0,0
22.10.2019 19:00:00 9,2 6,0 - - 0 0,0
22.10.2019 18:00:00 11,8 5,4 - - 0 0,0
22.10.2019 17:00:00 13,2 5,2 - - 6 0,0
22.10.2019 16:00:00 14,3 4,2 - - 60 0,0
22.10.2019 15:00:00 14,8 4,1 - - 60 0,0
22.10.2019 14:00:00 14,6 4,5 - - 60 0,0
22.10.2019 13:00:00 14,2 5,4 - - 60 0,0
22.10.2019 12:00:00 11,8 6,7 - - 60 0,0
22.10.2019 11:00:00 10,8 8,4 - - 60 0,0
22.10.2019 10:00:00 8,0 7,7 12,0 13,5 54 0,0
22.10.2019 09:00:00 5,8 5,6 - - 0 0,2
22.10.2019 08:00:00 4,4 4,0 - - 0 0,0
22.10.2019 07:00:00 5,1 4,7 - - 0 0,0
22.10.2019 06:00:00 5,2 4,7 - - 0 0,0
22.10.2019 05:00:00 5,9 5,3 - - 0 0,0
22.10.2019 04:00:00 6,6 5,7 - - 0 0,0
22.10.2019 03:00:00 8,1 7,3 - - 0 0,0
22.10.2019 02:00:00 8,4 7,1 - - 0 0,0
22.10.2019 01:00:00 9,4 7,5 - - - 0,0
22.10.2019 00:00:00 9,8 7,7 - - 0 0,0
21.10.2019 23:00:00 9,4 7,0 - - 0 0,0
21.10.2019 22:00:00 10,5 7,2 - - 0 0,0
21.10.2019 21:00:00 10,8 7,4 - - 0 0,0
21.10.2019 20:00:00 11,0 7,4 - - 0 0,0
21.10.2019 19:00:00 11,4 7,4 - - 0 0,0
21.10.2019 18:00:00 11,7 7,4 - - 0 0,0
21.10.2019 17:00:00 11,8 7,4 - - 0 0,0
21.10.2019 16:00:00 12,1 7,9 - - 0 -
21.10.2019 15:00:00 12,4 8,0 - - 0 0,0
21.10.2019 14:00:00 12,7 8,0 - - 0 0,0
21.10.2019 13:00:00 12,2 8,1 - - 0 0,0
21.10.2019 12:00:00 12,1 8,8 - - 0 0,0
21.10.2019 11:00:00 11,4 8,8 - - 0 0,0
21.10.2019 10:00:00 11,3 9,0 11,9 13,7 0 0,0
21.10.2019 09:00:00 10,6 8,9 - - 0 0,0
21.10.2019 08:00:00 10,3 8,8 - - 0 0,0
21.10.2019 07:00:00 10,0 8,6 - - 0 0,0
21.10.2019 06:00:00 10,2 8,3 - - 0 0,0
21.10.2019 05:00:00 10,5 8,0 - - 0 0,0
21.10.2019 04:00:00 10,5 7,9 - - 0 0,0
21.10.2019 03:00:00 10,7 7,8 - - 0 0,0
21.10.2019 02:00:00 10,8 8,1 - - 0 0,0
21.10.2019 01:00:00 10,5 8,2 - - - 0,0
21.10.2019 00:00:00 10,2 8,1 - - 0 0,0
20.10.2019 23:00:00 10,1 8,2 - - 0 0,0
20.10.2019 22:00:00 9,7 8,0 - - 0 0,0
20.10.2019 21:00:00 10,0 7,2 - - 0 0,0
20.10.2019 20:00:00 10,0 7,4 - - 0 0,0
20.10.2019 19:00:00 9,6 7,7 - - 0 0,0
20.10.2019 18:00:00 9,7 7,5 - - 0 0,0
20.10.2019 17:00:00 11,1 6,9 - - 0 0,0
20.10.2019 16:00:00 10,8 7,0 - - 0 0,0
20.10.2019 15:00:00 11,1 7,3 - - 0 0,0
20.10.2019 14:00:00 10,8 7,1 - - 0 0,0
20.10.2019 13:00:00 10,4 7,1 - - 0 0,0
20.10.2019 12:00:00 10,1 7,0 - - 0 0,0
20.10.2019 11:00:00 9,3 7,7 - - 0 0,0
20.10.2019 10:00:00 8,2 7,8 11,7 13,7 12 0,0
20.10.2019 09:00:00 6,7 6,5 - - 0 0,0
20.10.2019 08:00:00 6,1 5,9 - - 0 0,2
20.10.2019 07:00:00 4,9 4,7 - - 0 0,0
20.10.2019 06:00:00 4,2 4,0 - - 0 0,0
20.10.2019 05:00:00 3,0 2,6 - - 0 0,0
20.10.2019 04:00:00 3,8 3,5 - - 0 0,0
20.10.2019 03:00:00 3,7 3,3 - - 0 0,0
20.10.2019 02:00:00 4,0 3,5 - - 0 0,0
20.10.2019 01:00:00 4,9 4,4 - - - 0,0
20.10.2019 00:00:00 5,1 4,5 - - 0 0,0
19.10.2019 23:00:00 6,0 5,2 - - 0 0,0
19.10.2019 22:00:00 7,2 6,2 - - 0 0,0
19.10.2019 21:00:00 8,0 6,8 - - 0 0,0
19.10.2019 20:00:00 8,2 6,7 - - 0 0,0
19.10.2019 19:00:00 9,6 6,3 - - 0 0,0
19.10.2019 18:00:00 11,8 6,0 - - 24 0,0
19.10.2019 17:00:00 13,2 6,2 - - 36 0,0
19.10.2019 16:00:00 14,1 7,1 - - 60 0,0
19.10.2019 15:00:00 13,6 6,1 - - 54 0,0
19.10.2019 14:00:00 12,6 6,8 - - 6 0,0
19.10.2019 13:00:00 13,0 7,0 - - 36 0,0
19.10.2019 12:00:00 13,0 7,6 - - 54 0,0
19.10.2019 11:00:00 11,8 7,6 - - 60 0,0
19.10.2019 10:00:00 10,7 7,9 12,5 14,0 54 0,0
19.10.2019 09:00:00 9,0 7,5 - - 24 0,0
19.10.2019 08:00:00 8,1 7,2 - - 0 0,0
19.10.2019 07:00:00 8,9 7,8 - - 0 0,0
19.10.2019 06:00:00 8,6 7,7 - - 0 0,0
19.10.2019 05:00:00 9,3 8,0 - - 0 0,0
19.10.2019 04:00:00 9,7 8,1 - - 0 0,0
19.10.2019 03:00:00 9,7 7,8 - - 0 0,0
19.10.2019 02:00:00 10,0 7,9 - - 0 0,0
19.10.2019 01:00:00 10,2 8,1 - - - 0,0
19.10.2019 00:00:00 10,7 7,8 - - 0 0,0
18.10.2019 23:00:00 11,1 8,5 - - 0 0,0
18.10.2019 22:00:00 11,2 8,3 - - 0 0,0
18.10.2019 21:00:00 10,9 8,4 - - 0 0,0
18.10.2019 20:00:00 11,4 7,9 - - 0 0,0
18.10.2019 19:00:00 11,8 8,1 - - 0 0,0
18.10.2019 18:00:00 11,8 8,4 - - 0 0,2
18.10.2019 17:00:00 12,9 7,7 - - 36 0,0
18.10.2019 16:00:00 14,4 7,6 - - 48 0,0
18.10.2019 15:00:00 14,7 7,3 - - 42 0,0
18.10.2019 14:00:00 13,1 8,5 - - 18 0,0
18.10.2019 13:00:00 14,0 8,5 - - 18 0,0
18.10.2019 12:00:00 13,7 8,4 - - 54 0,0
18.10.2019 11:00:00 12,2 8,2 - - 48 0,0
18.10.2019 10:00:00 10,6 8,5 12,7 14,0 54 0,0
18.10.2019 09:00:00 8,4 7,5 - - 6 0,0
18.10.2019 08:00:00 8,4 7,5 - - 0 0,0
18.10.2019 07:00:00 8,8 7,9 - - 0 0,0
18.10.2019 06:00:00 9,2 8,0 - - 0 0,0
18.10.2019 05:00:00 10,0 9,2 - - 0 3,6
18.10.2019 04:00:00 9,5 8,7 - - 0 0,0
18.10.2019 03:00:00 9,0 8,0 - - 0 0,0
18.10.2019 02:00:00 9,3 8,4 - - 0 3,2
18.10.2019 01:00:00 10,5 9,5 - - - 3,6
18.10.2019 00:00:00 10,7 9,6 - - 0 0,6
17.10.2019 23:00:00 10,4 9,2 - - 0 0,0
17.10.2019 22:00:00 10,3 9,1 - - 0 0,0
17.10.2019 21:00:00 10,4 9,2 - - 0 0,0
17.10.2019 20:00:00 10,9 9,2 - - 0 0,0

tt = temperature
td = dewpoint
tt -20cm = temperature -20cm
tt -100cm = temperature -100cm
sd = sunshine duration
rr = precipitation

Next stations